Date String (YYYY-MM-DD hh:mm:ss) UTC,Instrument flags,absolute air pressure of the measurement (hPa),sample flow rate (lpm),inlet stack bypass flow (lpm),air temperature of the measurement (°C),ambient temperature measured by the external sensor (°C),aerosol sample conditioner tube jacket temperature (°C),OPC LED temperature (°C),internal box temperature (°C),relative humidity of the measurement (%),span deviation,mass concentration of particles derived from Lorenz-Mie calculation of OPC scattering (μg/m³),mass concentration of particles derived from Lorenz-Mie calculation of OPC scattering (μg/m³),mass concentration of particles derived from Lorenz-Mie calculation of OPC scattering (μg/m³)
DateTimeUTC,F1_M11,P_M11,Q1_M11,Q2_M11,T1_M11,T2_M11,T3_M11,T4_M11,T5_M11,U1_M11,ZSPAN_M11,X0_M11,X2_M11,X1_M11
2023-07-11 17:00:00,SystemResetWarning,0831.3,5.00,000.00,028.6,027.1,000.0,037.0,030.3,13.2,0000.0,0012.13,0004.37,0003.40
2023-07-11 17:01:00,SystemResetWarning,0831.3,5.00,000.00,028.7,027.2,000.0,037.0,030.4,12.0,0000.0,0011.58,0004.32,0003.39
2023-07-11 17:02:00,SystemResetWarning,0831.3,4.99,000.00,028.7,026.1,000.0,036.9,030.2,12.7,0000.0,0011.85,0004.29,0003.38
2023-07-11 17:03:00,SystemResetWarning,0831.3,5.00,000.00,028.6,025.0,000.0,036.8,029.9,12.6,0000.0,0013.01,0004.27,0003.38
2023-07-11 17:04:00,SystemResetWarning,0831.2,5.01,000.00,028.5,025.2,000.0,036.8,029.9,11.8,0000.0,0014.38,0004.27,0003.37
2023-07-11 17:05:00,SystemResetWarning,0831.3,5.00,000.00,028.5,025.5,000.0,036.8,029.9,11.9,0000.0,0015.66,0004.29,0003.37
2023-07-11 17:06:00,SystemResetWarning,0831.3,5.00,000.00,028.5,025.9,000.0,036.8,029.9,12.3,0000.0,0015.50,0004.30,0003.36
2023-07-11 17:07:00,SystemResetWarning,0831.3,5.00,000.00,028.5,026.3,000.0,036.9,030.0,12.7,0000.0,0015.40,0004.36,0003.37
2023-07-11 17:08:00,SystemResetWarning,0831.3,5.00,000.00,028.5,026.7,000.0,036.9,030.1,11.5,0000.0,0015.75,0004.41,0003.37
2023-07-11 17:09:00,SystemResetWarning,0831.3,4.98,000.00,028.6,027.0,000.0,036.9,030.2,11.5,0000.0,0016.36,0004.42,0003.37
2023-07-11 17:10:00,SystemResetWarning,0831.3,4.99,000.00,028.6,027.2,000.0,036.9,030.3,12.5,0000.0,0015.81,0004.35,0003.36
2023-07-11 17:11:00,SystemResetWarning,0831.3,5.00,000.00,028.6,026.1,000.0,036.9,030.1,11.8,0000.0,0015.37,0004.31,0003.34
2023-07-11 17:12:00,SystemResetWarning,0831.3,5.01,000.00,028.5,025.0,000.0,036.8,029.9,12.1,0000.0,0015.43,0004.32,0003.34
2023-07-11 17:13:00,SystemResetWarning,0831.3,5.01,000.00,028.5,025.2,000.0,036.7,029.9,12.2,0000.0,0015.71,0004.26,0003.34
2023-07-11 17:14:00,SystemResetWarning,0831.3,5.00,000.00,028.5,025.6,000.0,036.8,029.9,12.8,0000.0,0015.39,0004.25,0003.34
2023-07-11 17:15:00,SystemResetWarning,0831.3,4.99,000.00,028.5,026.0,000.0,036.8,030.0,12.6,0000.0,0014.19,0004.21,0003.33
2023-07-11 17:16:00,SystemResetWarning,0831.3,5.01,000.00,028.5,026.4,000.0,036.8,030.0,12.0,0000.0,0012.87,0004.15,0003.32
2023-07-11 17:17:00,SystemResetWarning,0831.3,5.01,000.00,028.5,026.7,000.0,036.9,030.1,12.0,0000.0,0012.47,0004.14,0003.31
2023-07-11 17:18:00,SystemResetWarning,0831.3,5.00,000.00,028.6,027.0,000.0,036.9,030.2,12.4,0000.0,0012.65,0004.12,0003.31
2023-07-11 17:19:00,SystemResetWarning,0831.3,4.99,000.00,028.6,027.2,000.0,036.9,030.3,13.3,0000.0,0012.85,0004.01,0003.30
2023-07-11 17:20:00,SystemResetWarning,0831.3,4.98,000.00,028.6,026.3,000.0,036.8,030.2,14.6,0000.0,0012.22,0003.99,0003.30
2023-07-11 17:21:00,SystemResetWarning,0831.3,5.01,000.00,028.5,025.0,000.0,036.7,029.9,13.4,0000.0,0012.39,0004.03,0003.31
2023-07-11 17:22:00,SystemResetWarning,0831.2,5.02,000.00,028.5,025.2,000.0,036.7,029.9,13.2,0000.0,0012.60,0004.01,0003.31
2023-07-11 17:23:00,SystemResetWarning,0831.3,4.99,000.00,028.5,025.6,000.0,036.7,029.9,11.3,0000.0,0012.54,0004.03,0003.31
2023-07-11 17:24:00,SystemResetWarning,0831.2,5.00,000.00,028.5,026.0,000.0,036.8,030.0,12.7,0000.0,0011.48,0004.03,0003.31
2023-07-11 17:25:00,SystemResetWarning,0831.3,5.01,000.00,028.5,026.4,000.0,036.8,030.0,12.1,0000.0,0010.15,0004.02,0003.32
2023-07-11 17:26:00,SystemResetWarning,0831.2,5.01,000.00,028.5,026.8,000.0,036.8,030.1,12.1,0000.0,0009.85,0004.02,0003.32
2023-07-11 17:27:00,SystemResetWarning,0831.2,4.99,000.00,028.6,027.1,000.0,036.9,030.2,12.4,0000.0,0010.36,0004.04,0003.32
2023-07-11 17:28:00,SystemResetWarning,0831.2,4.99,000.00,028.6,027.3,000.0,036.9,030.3,12.8,0000.0,0010.50,0004.03,0003.32
2023-07-11 17:29:00,SystemResetWarning,0831.2,5.00,000.00,028.6,026.4,000.0,036.8,030.2,13.2,0000.0,0010.80,0003.98,0003.31
2023-07-11 17:30:00,SystemResetWarning,0831.2,5.00,000.00,028.6,025.0,000.0,036.7,030.0,13.2,0000.0,0010.12,0003.99,0003.30
2023-07-11 17:31:00,SystemResetWarning,0831.2,5.03,000.00,028.5,025.2,000.0,036.7,030.0,13.5,0000.0,0010.17,0003.95,0003.29
2023-07-11 17:32:00,SystemResetWarning,0831.2,4.99,000.00,028.5,025.6,000.0,036.7,029.9,12.6,0000.0,0010.12,0003.91,0003.27
2023-07-11 17:33:00,SystemResetWarning,0831.2,5.00,000.00,028.5,026.0,000.0,036.8,030.0,12.1,0000.0,0009.98,0003.95,0003.27
2023-07-11 17:34:00,SystemResetWarning,0831.2,5.01,000.00,028.5,026.4,000.0,036.8,030.1,12.3,0000.0,0009.94,0003.96,0003.26
2023-07-11 17:35:00,SystemResetWarning,0831.2,4.99,000.00,028.5,026.7,000.0,036.8,030.1,12.4,0000.0,0010.00,0003.99,0003.25
2023-07-11 17:36:00,SystemResetWarning,0831.2,4.99,000.00,028.6,027.0,000.0,036.9,030.2,12.1,0000.0,0010.02,0003.99,0003.23
2023-07-11 17:37:00,SystemResetWarning,0831.2,4.99,000.00,028.6,027.3,000.0,036.9,030.3,12.7,0000.0,0010.99,0003.99,0003.22
2023-07-11 17:38:00,SystemResetWarning,0831.2,5.00,000.00,028.6,026.6,000.0,036.8,030.2,12.7,0000.0,0010.59,0003.98,0003.22
2023-07-11 17:39:00,SystemResetWarning,0831.2,5.00,000.00,028.6,025.2,000.0,036.8,029.9,12.0,0000.0,0010.55,0004.00,0003.22
2023-07-11 17:40:00,SystemResetWarning,0831.1,5.01,000.00,028.5,025.2,000.0,036.7,029.9,12.9,0000.0,0010.28,0004.04,0003.22
2023-07-11 17:41:00,SystemResetWarning,0831.1,5.01,000.00,028.5,025.5,000.0,036.7,029.9,13.0,0000.0,0010.64,0004.06,0003.23
2023-07-11 17:42:00,SystemResetWarning,0831.1,4.99,000.00,028.5,025.9,000.0,036.8,029.9,12.3,0000.0,0010.39,0004.09,0003.23
2023-07-11 17:43:00,SystemResetWarning,0831.1,5.00,000.00,028.5,026.3,000.0,036.8,030.0,13.4,0000.0,0010.05,0004.08,0003.24
2023-07-11 17:44:00,SystemResetWarning,0831.1,5.00,000.00,028.5,026.7,000.0,036.8,030.1,12.6,0000.0,0009.84,0004.04,0003.25
2023-07-11 17:45:00,SystemResetWarning,0831.1,4.99,000.00,028.6,027.0,000.0,036.9,030.2,12.5,0000.0,0009.37,0003.98,0003.24
2023-07-11 17:46:00,SystemResetWarning,0831.1,5.01,000.00,028.6,027.0,000.0,036.8,030.3,12.6,0000.0,0009.45,0003.97,0003.25
2023-07-11 17:47:00,SystemResetWarning,0831.1,4.98,000.00,028.6,025.7,000.0,036.8,030.0,12.1,0000.0,0009.59,0004.00,0003.25
2023-07-11 17:48:00,SystemResetWarning,0831.1,5.02,000.00,028.5,024.9,000.0,036.7,029.9,12.7,0000.0,0008.73,0003.99,0003.25
2023-07-11 17:49:00,SystemResetWarning,0831.1,5.00,000.00,028.5,025.3,000.0,036.7,029.9,12.8,0000.0,0008.71,0004.03,0003.26
2023-07-11 17:50:00,SystemResetWarning,0831.1,4.99,000.00,028.4,025.7,000.0,036.7,029.9,12.6,0000.0,0009.21,0004.04,0003.24
2023-07-11 17:51:00,SystemResetWarning,0831.1,5.01,000.00,028.4,026.1,000.0,036.8,029.9,12.1,0000.0,0009.25,0004.00,0003.22
2023-07-11 17:52:00,SystemResetWarning,0831.1,5.00,000.00,028.5,026.5,000.0,036.8,030.1,11.6,0000.0,0009.23,0003.96,0003.21
2023-07-11 17:53:00,SystemResetWarning,0831.1,5.00,000.00,028.5,026.8,000.0,036.8,030.1,11.8,0000.0,0009.49,0003.93,0003.20
2023-07-11 17:54:00,SystemResetWarning,0831.2,5.00,000.00,028.6,027.1,000.0,036.8,030.2,11.7,0000.0,0009.91,0003.93,0003.19
2023-07-11 17:55:00,SystemResetWarning,0831.1,4.98,000.00,028.6,027.2,000.0,036.8,030.3,11.6,0000.0,0010.06,0003.93,0003.17
2023-07-11 17:56:00,SystemResetWarning,0831.1,5.00,000.00,028.6,025.8,000.0,036.7,030.2,12.2,0000.0,0010.08,0003.94,0003.16
2023-07-11 17:57:00,SystemResetWarning,0831.1,5.02,000.00,028.5,025.0,000.0,036.7,030.0,12.7,0000.0,0009.96,0003.90,0003.16
2023-07-11 17:58:00,SystemResetWarning,0831.1,5.00,000.00,028.5,025.3,000.0,036.6,030.0,12.5,0000.0,0010.60,0003.88,0003.15
2023-07-11 17:59:00,SystemResetWarning,0831.1,5.00,000.00,028.5,025.7,000.0,036.7,029.9,11.7,0000.0,0010.64,0003.90,0003.16
